FW3600 Weather Reports


time (UTC)temp
C
wind
direction
speed
KPH
gust
KPH
rain 1hr
cm
rain 24hr
cm
rain mn
cm
humidity
%
barometer
mb
20260507000517 17 240 0.0 4.8 0.00 0.61 0.61 92 1008.4
20260507000038 17 230 0.0 4.8 0.00 0.61 0.61 92 1008.3
20260506235558 17 194 1.6 6.4 0.00 0.61 0.61 92 1008.3
20260506235007 17 194 3.2 6.4 0.00 0.61 0.61 92 1008.3
20260506234528 17 195 3.2 4.8 0.00 0.61 0.61 92 1008.2
20260506234048 17 205 1.6 4.8 0.00 0.61 0.61 92 1008.2
20260506233535 17 217 1.6 4.8 0.00 0.61 0.61 92 1008.2
20260506233008 17 200 1.6 8.0 0.00 0.61 0.61 92 1008.3
20260506232537 17 194 1.6 8.0 0.00 0.61 0.61 92 1008.2
20260506232100 17 183 1.6 4.8 0.00 0.61 0.61 92 1008.1
20260506231513 17 204 1.6 3.2 0.00 0.61 0.61 92 1008.1
20260506231052 17 192 0.0 3.2 0.00 0.61 0.61 92 1008.0
20260506230501 17 202 1.6 4.8 0.00 0.61 0.61 91 1008.2
20260506230023 17 202 1.6 4.8 0.00 0.61 0.61 91 1008.3
20260506225552 17 231 1.6 4.8 0.00 0.61 0.61 91 1008.3
20260506225023 17 226 1.6 4.8 0.00 0.61 0.61 91 1008.3
20260506224605 17 201 1.6 4.8 0.00 0.61 0.61 91 1008.2
20260506224027 18 175 1.6 6.4 0.00 0.61 0.61 92 1008.2
20260506223547 18 196 1.6 6.4 0.00 0.61 0.61 92 1008.1
20260506223108 17 196 1.6 6.4 0.00 0.61 0.61 91 1008.1
20260506222518 17 237 1.6 4.8 0.00 0.61 0.61 91 1008.0
20260506222103 17 177 0.0 4.8 0.00 0.61 0.61 92 1007.6
20260506221511 17 184 1.6 6.4 0.00 0.61 0.61 92 1008.0
20260506221033 17 200 1.6 4.8 0.00 0.61 0.61 92 1008.1
20260506220552 17 210 1.6 4.8 0.00 0.61 0.61 92 1008.1
20260506220136 17 241 1.6 4.8 0.00 0.61 0.61 92 1008.0
20260506215546 17 238 1.6 4.8 0.00 0.61 0.61 92 1008.0
20260506215020 17 192 1.6 4.8 0.00 0.61 0.61 93 1008.0
20260506214544 17 203 1.6 6.4 0.00 0.61 0.61 92 1008.0
20260506214100 17 201 1.6 6.4 0.00 0.61 0.61 93 1007.9
20260506213513 17 194 1.6 6.4 0.00 0.61 0.61 94 1007.9
20260506213032 17 176 1.6 6.4 0.00 0.61 0.61 94 1007.8
20260506212551 17 170 3.2 6.4 0.00 0.61 0.61 95 1007.7
20260506212110 17 229 1.6 6.4 0.00 0.61 0.61 95 1007.6
20260506211523 17 171 1.6 4.8 0.00 0.61 0.61 96 1007.7
20260506211043 16 192 1.6 4.8 0.00 0.61 0.61 96 1007.7
20260506210512 16 235 1.6 4.8 0.00 0.61 0.61 96 1007.7
20260506210036 16 265 0.0 4.8 0.00 0.61 0.61 96 1007.7
20260506205530 16 265 0.0 4.8 0.00 0.61 0.61 96 1007.7
20260506205048 16 223 0.0 3.2 0.00 0.61 0.61 97 1007.7
20260506204502 16 223 1.6 6.4 0.00 0.61 0.61 97 1007.6
20260506204057 16 202 1.6 6.4 0.00 0.61 0.61 97 1007.7
20260506203532 16 237 1.6 6.4 0.00 0.61 0.61 97 1007.7
20260506203052 16 198 1.6 8.0 0.00 0.61 0.61 98 1007.7
20260506202522 16 198 3.2 8.0 0.00 0.61 0.61 98 1007.6
20260506202042 16 246 1.6 4.8 0.00 0.61 0.61 98 1007.6
20260506201602 16 240 1.6 8.0 0.00 0.61 0.61 98 1007.6
20260506201012 16 200 1.6 4.8 0.00 0.61 0.61 98 1007.6
20260506200539 16 211 1.6 6.4 0.00 0.61 0.61 98 1007.6
20260506200007 16 236 1.6 6.4 0.00 0.61 0.61 98 1007.6
20260506195531 16 225 1.6 6.4 0.03 0.61 0.61 98 1007.7
20260506195050 15 197 1.6 6.4 0.03 0.61 0.61 98 1007.7
20260506194505 15 211 3.2 6.4 0.03 0.61 0.61 98 1007.8
20260506194042 15 211 3.2 6.4 0.03 0.61 0.61 98 1007.8
20260506193605 15 195 3.2 9.7 0.03 0.61 0.61 99 1007.8
20260506193033 15 196 1.6 9.7 0.03 0.61 0.61 98 1007.9
20260506192559 15 206 4.8 9.7 0.03 0.61 0.61 98 1007.9
20260506192017 15 213 3.2 11.3 0.03 0.61 0.61 98 1008.0
20260506191535 15 201 4.8 11.3 0.03 0.61 0.61 98 1007.9
20260506191106 15 203 4.8 9.7 0.03 0.61 0.61 98 1008.0
20260506190518 15 208 3.2 11.3 0.05 0.61 0.61 98 1008.1
20260506190052 15 202 3.2 11.3 0.05 0.61 0.61 98 1008.2
20260506185500 15 203 3.2 9.7 0.03 0.58 0.58 98 1008.1
20260506185034 15 203 3.2 8.0 0.03 0.58 0.58 98 1008.2
20260506184502 15 220 1.6 8.0 0.03 0.58 0.58 98 1008.3
20260506184036 15 163 4.8 8.0 0.03 0.58 0.58 98 1008.4
20260506183506 15 196 3.2 8.0 0.03 0.58 0.58 97 1008.4
20260506183051 15 246 3.2 8.0 0.03 0.58 0.58 97 1008.4
20260506182514 15 217 4.8 11.3 0.03 0.58 0.58 97 1008.3
20260506182045 15 192 4.8 9.7 0.03 0.58 0.58 97 1008.4
20260506181519 15 196 3.2 9.7 0.03 0.58 0.58 97 1008.4
20260506181053 15 142 3.2 9.7 0.00 0.56 0.56 97 1008.4
20260506180520 15 194 3.2 11.3 0.00 0.56 0.56 97 1008.4
20260506180005 15 164 4.8 11.3 0.00 0.56 0.56 97 1008.5
20260506175527 15 207 3.2 6.4 0.00 0.56 0.56 97 1008.5
20260506175007 15 192 3.2 11.3 0.00 0.56 0.56 97 1008.5
20260506174536 15 182 4.8 11.3 0.00 0.56 0.56 97 1008.6
20260506174102 15 212 4.8 11.3 0.00 0.56 0.56 97 1008.5
20260506173552 15 251 3.2 9.7 0.03 0.56 0.56 97 1008.5
20260506173050 15 182 3.2 6.4 0.03 0.56 0.56 97 1008.5
20260506172605 15 241 3.2 9.7 0.05 0.56 0.56 97 1008.7
20260506172042 15 196 4.8 14.5 0.05 0.56 0.56 97 1008.7
20260506171624 15 197 8.0 14.5 0.05 0.56 0.56 97 1008.7
20260506171014 15 217 4.8 12.9 0.08 0.56 0.56 97 1008.7
20260506170542 15 210 8.0 12.9 0.08 0.56 0.56 97 1008.6
20260506170024 15 155 6.4 14.5 0.10 0.56 0.56 98 1008.6
20260506165518 15 199 6.4 9.7 0.13 0.56 0.56 98 1008.6
20260506165014 15 203 4.8 11.3 0.15 0.56 0.56 98 1008.6
20260506164536 15 204 4.8 11.3 0.18 0.56 0.56 98 1008.6
20260506164008 15 210 6.4 12.9 0.20 0.56 0.56 98 1008.6
20260506163549 15 216 4.8 12.9 0.20 0.53 0.53 98 1008.2
20260506163031 15 196 6.4 16.1 0.25 0.53 0.53 98 1008.2
20260506162550 15 182 6.4 16.1 0.25 0.51 0.51 98 1008.3
20260506162030 15 214 4.8 12.9 0.30 0.51 0.51 98 1008.7
20260506161523 15 182 4.8 9.7 0.30 0.51 0.51 98 1009.0
20260506161010 15 186 4.8 11.3 0.30 0.48 0.48 98 1009.4
20260506160530 15 202 4.8 11.3 0.30 0.48 0.48 97 1009.7
20260506160049 15 179 4.8 9.7 0.30 0.46 0.46 97 1009.8
20260506155608 15 204 4.8 9.7 0.28 0.43 0.43 97 1009.9
20260506155043 15 188 4.8 9.7 0.28 0.41 0.41 97 1009.8
20260506154517 15 226 4.8 9.7 0.28 0.38 0.38 96 1009.8
20260506154057 15 195 3.2 9.7 0.25 0.36 0.36 96 1009.8
20260506153533 15 202 3.2 14.5 0.25 0.30 0.30 96 1010.0
20260506153005 15 201 6.4 14.5 0.25 0.28 0.28 96 1009.9
20260506152528 15 214 3.2 8.0 0.23 0.23 0.23 96 1010.0
20260506152045 15 194 3.2 11.3 0.20 0.20 0.20 95 1010.0
20260506151604 15 223 4.8 11.3 0.20 0.20 0.20 95 1009.9
20260506151023 15 165 4.8 8.0 0.18 0.18 0.18 95 1009.9
20260506150559 16 191 4.8 9.7 0.18 0.18 0.18 95 1009.8
20260506150009 16 197 3.2 9.7 0.15 0.15 0.15 95 1009.7
20260506145529 16 188 3.2 6.4 0.15 0.15 0.15 94 1009.7
20260506145048 16 202 4.8 8.0 0.13 0.13 0.13 94 1009.6
20260506144610 16 173 3.2 9.7 0.10 0.10 0.10 93 1009.7
20260506144019 16 199 3.2 11.3 0.08 0.08 0.08 92 1009.7
20260506143539 16 194 6.4 11.3 0.05 0.05 0.05 90 1009.8
20260506143101 16 194 3.2 9.7 0.03 0.03 0.03 90 1009.9
20260506142529 16 207 4.8 11.3 0.00 0.00 0.00 88 1009.9
20260506142002 17 204 6.4 11.3 0.00 0.00 0.00 86 1009.8
20260506141523 17 188 4.8 11.3 0.00 0.00 0.00 85 1009.8
20260506141044 17 201 4.8 11.3 0.00 0.00 0.00 84 1009.8
20260506140606 17 195 4.8 12.9 0.00 0.00 0.00 83 1009.7
20260506140014 17 190 4.8 12.9 0.00 0.00 0.00 83 1009.6
20260506135532 17 190 4.8 12.9 0.00 0.00 0.00 83 1009.4
20260506134504 17 217 3.2 14.5 0.00 0.00 0.00 84 1009.4
20260506134043 17 217 6.4 14.5 0.00 0.00 0.00 83 1009.7
20260506133521 17 206 4.8 14.5 0.00 0.00 0.00 83 1009.7
20260506133039 17 187 8.0 14.5 0.00 0.00 0.00 82 1009.7
20260506132559 17 205 6.4 11.3 0.00 0.00 0.00 82 1009.6
20260506132034 17 159 8.0 11.3 0.00 0.00 0.00 82 1009.7
20260506131557 17 189 3.2 19.3 0.00 0.00 0.00 82 1009.7
20260506131001 17 196 9.7 19.3 0.00 0.00 0.00 81 1009.9
20260506130521 17 202 6.4 14.5 0.00 0.00 0.00 81 1009.9
20260506130057 17 184 4.8 14.5 0.00 0.00 0.00 81 1009.9
20260506125532 17 194 4.8 14.5 0.00 0.00 0.00 81 1010.0
20260506125058 17 192 6.4 14.5 0.00 0.00 0.00 81 1009.9
20260506124509 17 173 4.8 12.9 0.00 0.00 0.00 82 1009.9
20260506124028 17 204 4.8 11.3 0.00 0.00 0.00 82 1009.8
20260506123503 17 187 3.2 12.9 0.00 0.00 0.00 82 1009.8
20260506123047 17 180 4.8 14.5 0.00 0.00 0.00 82 1009.8
20260506122609 17 194 4.8 14.5 0.00 0.00 0.00 82 1009.7
20260506122016 17 217 4.8 12.9 0.00 0.00 0.00 82 1009.7
20260506121537 17 193 8.0 12.9 0.00 0.00 0.00 82 1009.7
20260506121100 17 192 6.4 11.3 0.00 0.00 0.00 82 1009.7
20260506120507 17 195 6.4 12.9 0.00 0.00 0.00 82 1009.7
20260506120029 17 198 4.8 12.9 0.00 0.00 0.00 82 1009.7
20260506115519 17 205 8.0 12.9 0.00 0.00 0.00 82 1009.6
20260506115045 17 192 4.8 11.3 0.00 0.00 0.00 83 1009.5
20260506114510 17 165 4.8 11.3 0.00 0.00 0.00 83 1009.7
20260506114104 17 192 4.8 12.9 0.00 0.00 0.00 83 1009.7
20260506113513 17 197 3.2 12.9 0.00 0.00 0.00 83 1009.5
20260506113040 17 192 6.4 11.3 0.00 0.00 0.00 83 1009.5
20260506112553 17 207 4.8 12.9 0.00 0.00 0.00 83 1009.5
20260506112002 17 209 6.4 12.9 0.00 0.00 0.00 83 1009.7
20260506111540 17 171 4.8 11.3 0.00 0.00 0.00 83 1009.8
20260506111101 17 193 6.4 12.9 0.00 0.00 0.00 83 1009.7
20260506110509 17 209 8.0 12.9 0.00 0.00 0.00 83 1009.4
20260506110100 17 224 8.0 16.1 0.00 0.00 0.00 82 1009.3
20260506105524 17 215 8.0 17.7 0.00 0.00 0.00 83 1009.4
20260506105051 17 187 6.4 12.9 0.00 0.00 0.00 83 1009.4
20260506104537 17 187 4.8 14.5 0.00 0.00 0.00 83 1009.2
20260506104103 17 196 6.4 14.5 0.00 0.00 0.00 83 1009.3
20260506103537 17 101 4.8 11.3 0.00 0.00 0.00 83 1009.2
20260506103100 17 192 4.8 12.9 0.00 0.00 0.00 83 1009.3
20260506102513 17 200 6.4 12.9 0.00 0.00 0.00 83 1009.2
20260506102050 17 198 4.8 12.9 0.00 0.00 0.00 83 1009.2
20260506101501 17 192 6.4 12.9 0.00 0.00 0.00 83 1009.2
20260506101032 17 195 4.8 11.3 0.00 0.00 0.00 82 1009.2
20260506100601 17 165 4.8 9.7 0.00 0.00 0.00 82 1009.2
20260506100105 17 217 6.4 12.9 0.00 0.00 0.00 82 1009.3
20260506095509 17 194 6.4 12.9 0.00 0.00 0.00 82 1009.3
20260506095038 17 180 4.8 16.1 0.00 0.00 0.00 82 1009.4
20260506094512 17 198 6.4 16.1 0.00 0.00 0.00 82 1009.5
20260506094027 17 197 6.4 14.5 0.00 0.00 0.00 81 1009.3
20260506093501 17 174 6.4 17.7 0.00 0.00 0.00 81 1009.3
20260506093054 17 201 4.8 17.7 0.00 0.00 0.00 81 1009.3
20260506092516 17 200 4.8 12.9 0.00 0.00 0.00 81 1009.3
20260506092037 17 211 6.4 12.9 0.00 0.00 0.00 81 1009.3
20260506091522 17 169 4.8 9.7 0.00 0.00 0.00 80 1009.3
20260506091008 18 219 4.8 8.0 0.00 0.00 0.00 80 1009.3
20260506090552 18 132 4.8 12.9 0.00 0.00 0.00 80 1009.4
20260506090007 18 199 6.4 12.9 0.00 0.00 0.00 79 1009.5
20260506085533 18 208 4.8 12.9 0.00 0.00 0.00 79 1009.5
20260506085010 18 174 6.4 12.9 0.00 0.00 0.00 79 1009.5
20260506084559 18 200 4.8 12.9 0.00 0.00 0.00 79 1009.5
20260506084104 18 196 4.8 12.9 0.00 0.00 0.00 79 1009.6
20260506083516 18 183 4.8 11.3 0.00 0.00 0.00 80 1009.6
20260506083043 18 142 4.8 9.7 0.00 0.00 0.00 80 1009.5
20260506082538 18 167 6.4 14.5 0.00 0.00 0.00 79 1009.6
20260506082012 17 198 8.0 14.5 0.00 0.00 0.00 79 1009.4
20260506081539 17 192 4.8 9.7 0.00 0.00 0.00 79 1009.5
20260506081011 18 195 4.8 11.3 0.00 0.00 0.00 79 1009.6
20260506080503 17 198 4.8 11.3 0.00 0.00 0.00 79 1009.6
20260506073042 18 195 4.8 8.0 0.00 0.00 0.00 77 1009.7
20260506072521 18 140 4.8 9.7 0.00 0.00 0.00 77 1009.8
20260506072002 18 194 6.4 12.9 0.00 0.00 0.00 76 1009.8
20260506071546 18 140 6.4 12.9 0.00 0.00 0.00 76 1009.8
20260506071003 18 186 4.8 12.9 0.00 0.00 0.00 75 1009.8
20260506070546 18 196 6.4 12.9 0.00 0.00 0.00 76 1009.7
20260506062014 18 186 6.4 11.3 0.00 0.00 0.00 74 1010.3
20260506061503 18 201 4.8 9.7 0.00 0.00 0.00 73 1010.4
20260506061051 18 194 6.4 9.7 0.00 0.00 0.00 73 1010.3
20260506060603 18 200 4.8 8.0 0.00 0.00 0.00 73 1010.5
20260506051003 18 194 3.2 9.7 0.00 0.00 0.00 71 1010.9
20260506050533 18 190 4.8 9.7 0.00 0.00 0.00 71 1010.9
20260506045100 18 196 3.2 8.0 0.00 0.00 0.00 72 1011.0
20260506044524 18 194 3.2 8.0 0.00 0.00 0.00 72 1010.9
20260506044035 18 196 3.2 6.4 0.00 0.00 0.00 71 1010.9
20260506043549 18 183 3.2 8.0 0.00 0.00 0.00 71 1011.0
20260506043111 18 198 3.2 8.0 0.00 0.00 0.00 71 1011.1
20260506042544 18 194 4.8 6.4 0.00 0.00 0.00 71 1011.2
20260506042104 18 196 3.2 8.0 0.00 0.00 0.00 71 1011.1
20260506041537 18 207 3.2 8.0 0.00 0.00 0.00 70 1011.0
20260506041021 18 192 3.2 6.4 0.00 0.00 0.00 70 1010.9
20260506040559 18 155 3.2 9.7 0.00 0.00 0.00 70 1011.0
20260506040007 18 197 4.8 9.7 0.00 0.00 0.00 69 1011.0
20260506035530 19 197 3.2 9.7 0.00 0.00 0.00 69 1011.0
20260506035100 19 194 3.2 9.7 0.00 0.00 0.00 69 1010.9
20260506034622 19 201 4.8 9.7 0.00 0.00 0.00 68 1011.0
20260506034005 19 188 4.8 11.3 0.00 0.00 0.00 68 1010.9
20260506033546 19 196 4.8 14.5 0.00 0.00 0.00 67 1010.8
20260506033007 20 196 6.4 16.1 0.00 0.00 0.00 67 1010.8
20260506032530 20 192 4.8 16.1 0.00 0.00 0.00 66 1010.7
20260506032056 20 191 4.8 12.9 0.00 0.00 0.00 66 1010.7
20260506031541 20 199 6.4 12.9 0.00 0.00 0.00 65 1010.7
20260506031058 20 190 4.8 9.7 0.00 0.00 0.00 64 1010.7
20260506030534 20 196 4.8 9.7 0.00 0.00 0.00 63 1010.7
20260506030020 20 180 3.2 11.3 0.00 0.00 0.00 62 1010.7
20260506025513 20 202 3.2 8.0 0.00 0.00 0.00 61 1010.6
20260506025035 20 190 4.8 8.0 0.00 0.00 0.00 61 1010.8
20260506024606 20 191 1.6 6.4 0.00 0.00 0.00 60 1010.7
20260506024041 21 191 3.2 8.0 0.00 0.00 0.00 60 1010.8
20260506023516 21 183 3.2 16.1 0.00 0.00 0.00 59 1010.8
20260506023105 21 202 6.4 16.1 0.00 0.00 0.00 59 1010.7
20260506022505 21 190 3.2 9.7 0.00 0.00 0.00 58 1010.7
20260506022041 21 208 3.2 9.7 0.00 0.00 0.00 58 1010.8
20260506021537 21 195 4.8 12.9 0.00 0.00 0.00 57 1010.7
20260506021008 21 196 6.4 12.9 0.00 0.00 0.00 57 1010.7
20260506020535 21 204 6.4 11.3 0.00 0.00 0.00 57 1010.6
20260506020008 21 200 4.8 11.3 0.00 0.00 0.00 56 1010.6
20260506015556 21 200 6.4 11.3 0.00 0.00 0.00 56 1010.6
20260506015023 21 202 4.8 11.3 0.00 0.00 0.00 55 1010.6
20260506014512 21 188 6.4 11.3 0.00 0.00 0.00 55 1010.7
20260506014059 22 229 3.2 11.3 0.00 0.00 0.00 54 1010.6
20260506013546 22 188 4.8 9.7 0.00 0.00 0.00 54 1010.5
20260506013009 22 199 4.8 14.5 0.00 0.00 0.00 53 1010.4
20260506012548 22 200 4.8 14.5 0.00 0.00 0.00 53 1010.3
20260506012028 22 190 4.8 16.1 0.00 0.00 0.00 52 1010.2
20260506011513 22 190 6.4 19.3 0.00 0.00 0.00 52 1010.2
20260506010506 22 184 8.0 16.1 0.00 0.00 0.00 52 1010.2
20260506010004 22 164 8.0 16.1 0.00 0.00 0.00 53 1010.1
20260506005523 22 186 6.4 12.9 0.00 0.00 0.00 53 1010.1
20260506005105 22 175 4.8 11.3 0.00 0.00 0.00 53 1010.0
20260506004559 22 198 6.4 12.9 0.00 0.00 0.00 53 1009.9
20260506004011 22 205 4.8 11.3 0.00 0.00 0.00 54 1009.9
20260506003556 22 190 4.8 11.3 0.00 0.00 0.00 54 1009.9
20260506003013 22 178 6.4 12.9 0.00 0.00 0.00 53 1009.8
20260506002551 22 190 4.8 8.0 0.00 0.00 0.00 52 1009.7
20260506002024 23 181 3.2 8.0 0.00 0.00 0.00 51 1009.6
20260506001608 23 151 3.2 6.4 0.00 0.00 0.00 50 1009.6
20260506001017 23 188 3.2 6.4 0.00 0.00 0.00 49 1009.6